Pine Bluff, AR

8:25 PM CST on December 10, 2016 (GMT -0600)
Grider

Weather History for KPBF - June, 2012

Change the Weather History Date:

Wednesday, June 20, 2012

  Actual Average Record
Temperature  
Mean Temperature 81 °F 80 °F  
Max Temperature 91 °F 90 °F 107 °F (1936)
Min Temperature 70 °F 70 °F 57 °F (1976)
Degree Days  
Heating Degree Days 0 0  
Month to date heating degree days 0 0  
Since 1 June heating degree days 0 0  
Since 1 July heating degree days 2207 2881  
Cooling Degree Days 16 15  
Month to date cooling degree days 247 263  
Year to date cooling degree days 749 570  
Since 1 June cooling degree days 247 263  
Growing Degree Days 31 (Base 50)    
Moisture  
Dew Point 66 °F    
Average Humidity 67    
Maximum Humidity 90    
Minimum Humidity 43    
Precipitation  
Precipitation 0.00 in 0.11 in 0.80 in (1910)
Month to date precipitation 1.33 2.56  
Year to date precipitation 15.84 25.76  
Snow  
Snow 0.00 in 0.00 in - ()
Month to date snowfall 0.0 0.0  
Since 1 June snowfall 0.0 0.0  
Since 1 July snowfall 0.5 3.1  
Snow Depth 0.00 in    
Sea Level Pressure  
Sea Level Pressure 30.03 in    
Wind  
Wind Speed 8 mph (SSE)    
Max Wind Speed 16 mph    
Max Gust Speed 21 mph    
Visibility 10 miles    
Events      
T = Trace of Precipitation, MM = Missing Value Source: NWS Daily Summary

Daily Weather History Graph

Daily Weather History Graph

Search for Another Location

Airport or City:

Trip Planner

Search our weather history database for the weather conditions in past years. The results will help you decide how hot, cold, wet, or windy it might be!

Date:

Astronomy

Jun. 20, 2012 Rise Set
Actual Time 5:56 AM CDT 8:22 PM CDT
Civil Twilight 5:27 AM CDT 8:51 PM CDT
Nautical Twilight 4:50 AM CDT 9:28 PM CDT
Astronomical Twilight 4:11 AM CDT 10:07 PM CDT
Moon 6:53 AM CDT (6/20) 9:12 PM CDT (6/20)
Length of Visible Light 15h 24m
Length of Day
14h 26m
New Moon, 1% of the Moon is Illuminated
Jun 20
New Moon
Jun 26
First Quarter
Jul 3
Full
Jul 10
Last Quarter
Jul 18
New

Hourly Weather History & Observations

Time (CDT) Temp. Heat Index Dew Point Humidity Pressure Visibility Wind Dir Wind Speed Gust Speed Precip Events Conditions
12:53 AM 72.0 °F - 68.0 °F 87% 30.01 in 10.0 mi SE 3.5 mph - N/A   Clear
1:53 AM 71.1 °F - 68.0 °F 90% 30.00 in 10.0 mi SE 4.6 mph - N/A   Clear
2:53 AM 72.0 °F - 66.9 °F 84% 30.00 in 10.0 mi SSE 5.8 mph - N/A   Clear
3:53 AM 71.1 °F - 66.9 °F 87% 30.01 in 10.0 mi South 5.8 mph - N/A   Clear
4:53 AM 75.0 °F - 68.0 °F 79% 30.02 in 10.0 mi South 8.1 mph - N/A   Mostly Cloudy
5:53 AM 72.0 °F - 66.0 °F 81% 30.04 in 10.0 mi South 5.8 mph - N/A   Scattered Clouds
6:53 AM 73.9 °F - 66.9 °F 79% 30.05 in 10.0 mi SSW 4.6 mph - N/A   Partly Cloudy
7:53 AM 77.0 °F - 68.0 °F 74% 30.06 in 10.0 mi South 8.1 mph - N/A   Clear
8:53 AM 80.1 °F 82.7 °F 68.0 °F 67% 30.07 in 10.0 mi SSW 12.7 mph - N/A   Clear
9:53 AM 82.0 °F 84.9 °F 68.0 °F 62% 30.08 in 10.0 mi SSW 8.1 mph - N/A   Clear
10:53 AM 84.0 °F 85.8 °F 64.9 °F 53% 30.07 in 10.0 mi South 10.4 mph 18.4 mph N/A   Clear
11:53 AM 87.8 °F 88.5 °F 62.6 °F 43% 30.08 in 10.0 mi South 10.4 mph 19.6 mph N/A   Clear
12:53 PM 88.0 °F 89.3 °F 64.0 °F 45% 30.06 in 10.0 mi SSE 11.5 mph 17.3 mph N/A   Clear
1:53 PM 90.0 °F 91.3 °F 64.0 °F 42% 30.04 in 10.0 mi SSE 11.5 mph 17.3 mph N/A   Scattered Clouds
2:53 PM 90.0 °F 91.7 °F 64.9 °F 43% 30.03 in 10.0 mi SSE 8.1 mph - N/A   Scattered Clouds
3:53 PM 91.0 °F 93.8 °F 66.0 °F 44% 30.01 in 10.0 mi ESE 15.0 mph 19.6 mph N/A   Scattered Clouds
4:53 PM 90.0 °F 91.3 °F 64.0 °F 42% 30.00 in 10.0 mi ESE 15.0 mph - N/A   Clear
5:53 PM 88.0 °F 89.6 °F 64.9 °F 46% 29.99 in 10.0 mi ESE 11.5 mph - N/A   Clear
6:53 PM 87.1 °F 89.2 °F 66.0 °F 49% 29.99 in 10.0 mi ESE 9.2 mph - N/A   Clear
7:53 PM 82.9 °F 85.0 °F 66.0 °F 56% 29.99 in 10.0 mi ESE 8.1 mph - N/A   Clear
8:53 PM 78.1 °F - 68.0 °F 71% 30.00 in 10.0 mi SE 5.8 mph - N/A   Clear
9:53 PM 75.0 °F - 68.0 °F 79% 30.01 in 10.0 mi SE 4.6 mph - N/A   Clear
10:53 PM 73.0 °F - 68.0 °F 84% 30.01 in 10.0 mi ESE 3.5 mph - N/A   Clear
11:53 PM 73.0 °F - 68.0 °F 84% 30.01 in 10.0 mi Calm Calm - N/A   Clear